Weather History for KDFI - February, 2012

Change the Weather History Date:

Saturday, February 4, 2012

  Actual Average Record
Temperature  
Mean Temperature 36 °F -  
Max Temperature 39 °F 30 °F 51 °F (2008)
Min Temperature 33 °F 15 °F -8 °F (1985)
Degree Days  
Heating Degree Days 29    
Moisture  
Dew Point 31 °F    
Average Humidity 84    
Maximum Humidity 93    
Minimum Humidity 75    
Precipitation  
Precipitation 0.19 in - - ()
Sea Level Pressure  
Sea Level Pressure 30.28 in    
Wind  
Wind Speed 5 mph (ENE)    
Max Wind Speed 9 mph    
Max Gust Speed -    
Visibility 6 miles    
Events Fog , Snow    
Averages and records for this station are not official NWS values.
T = Trace of Precipitation, MM = Missing Value Source: NWS Daily Summary

Daily Weather History Graph

Daily Weather History Graph

Search for Another Location

Airport or City:

Trip Planner

Search our weather history database for the weather conditions in past years. The results will help you decide how hot, cold, wet, or windy it might be!

Date:

Astronomy

Feb. 04, 2012 Rise Set
Actual Time 7:46 AM EST 5:57 PM EST
Civil Twilight 7:17 AM EST 6:26 PM EST
Nautical Twilight 6:44 AM EST 6:59 PM EST
Astronomical Twilight 6:12 AM EST 7:31 PM EST
Moon 2:52 PM EST (2/4) 5:12 AM EST (2/4)
Length of Visible Light 11h 08m
Length of Day
10h 10m
Waxing Gibbous, 89% of the Moon is Illuminated
Feb 4
Waxing Gibbous
Feb 7
Full
Feb 14
Last Quarter
Feb 21
New
Feb 29
First Quarter

Hourly Weather History & Observations

Time (EST) Temp. Windchill Dew Point Humidity Pressure Visibility Wind Dir Wind Speed Gust Speed Precip Events Conditions
12:53 AM 35.1 °F 28.6 °F 30.0 °F 82% 30.38 in 6.0 mi NE 8.1 mph - N/A   Haze
1:53 AM 35.1 °F 28.6 °F 28.9 °F 78% 30.38 in 7.0 mi NE 8.1 mph - N/A   Overcast
2:53 AM 35.1 °F 32.2 °F 30.0 °F 82% 30.38 in 7.0 mi NE 3.5 mph - N/A   Overcast
3:53 AM 35.1 °F - 30.0 °F 82% 30.36 in 3.0 mi Calm Calm - 0.00 in Snow Light Snow
3:56 AM 35.6 °F - 30.2 °F 81% 30.34 in 2.0 mi Calm Calm - 0.00 in Snow Light Snow
4:04 AM 33.8 °F - 30.2 °F 87% 30.34 in 1.2 mi Calm Calm - 0.00 in Snow Light Snow
4:11 AM 33.8 °F - 30.2 °F 87% 30.34 in 1.0 mi Calm Calm - 0.01 in Snow Light Snow
4:39 AM 33.8 °F - 30.2 °F 87% 30.34 in 0.8 mi Calm Calm - 0.04 in Snow Light Snow
4:53 AM 34.0 °F - 32.0 °F 92% 30.36 in 0.8 mi Calm Calm - 0.05 in Snow Light Snow
5:15 AM 33.8 °F 30.8 °F 30.2 °F 87% 30.35 in 0.5 mi NNE 3.5 mph - 0.04 in Fog , Snow Snow
5:24 AM 33.8 °F 29.6 °F 30.2 °F 87% 30.35 in 0.5 mi NNE 4.6 mph - 0.07 in Fog , Snow Snow
5:53 AM 33.1 °F 28.7 °F 30.9 °F 92% 30.36 in 0.5 mi NNE 4.6 mph - 0.12 in Fog , Snow Snow
6:27 AM 33.8 °F 30.8 °F 32.0 °F 93% 30.33 in 0.8 mi ENE 3.5 mph - 0.04 in Snow Light Snow
6:40 AM 33.8 °F 28.6 °F 30.2 °F 87% 30.32 in 1.0 mi East 5.8 mph - 0.06 in Snow Light Snow
6:53 AM 34.0 °F 28.0 °F 30.9 °F 89% 30.33 in 2.0 mi East 6.9 mph - 0.06 in Snow Light Snow
7:02 AM 33.8 °F 27.0 °F 30.2 °F 87% 30.31 in 2.5 mi East 8.1 mph - 0.00 in Snow Light Snow
7:09 AM 33.8 °F 27.7 °F 30.2 °F 87% 30.31 in 3.0 mi East 6.9 mph - 0.00 in Snow Light Snow
7:18 AM 33.8 °F 27.7 °F 30.2 °F 87% 30.30 in 2.5 mi East 6.9 mph - 0.00 in Snow Light Snow
7:30 AM 33.8 °F 27.7 °F 30.2 °F 87% 30.31 in 2.0 mi ENE 6.9 mph - 0.01 in Snow Light Snow
7:38 AM 33.8 °F 27.7 °F 30.2 °F 87% 30.31 in 2.5 mi East 6.9 mph - 0.01 in Snow Light Snow
7:45 AM 33.8 °F 28.6 °F 32.0 °F 93% 30.31 in 1.8 mi ENE 5.8 mph - 0.01 in Snow Light Snow
7:53 AM 34.0 °F 28.0 °F 30.9 °F 89% 30.33 in 1.5 mi ENE 6.9 mph - 0.01 in Snow Light Snow
8:53 AM 34.0 °F 29.8 °F 30.9 °F 89% 30.33 in 1.0 mi ENE 4.6 mph - 0.01 in Snow Light Snow
9:31 AM 33.8 °F 27.7 °F 30.2 °F 87% 30.31 in 2.5 mi NE 6.9 mph - 0.00 in Snow Light Snow
9:38 AM 33.8 °F 27.0 °F 30.2 °F 87% 30.31 in 3.0 mi NE 8.1 mph - 0.00 in Snow Light Snow
9:53 AM 34.0 °F 28.8 °F 30.9 °F 89% 30.32 in 5.0 mi ENE 5.8 mph - 0.00 in   Overcast
10:26 AM 33.8 °F 27.0 °F 30.2 °F 87% 30.29 in 7.0 mi ENE 8.1 mph - N/A   Overcast
10:53 AM 34.0 °F 27.2 °F 30.9 °F 89% 30.30 in 8.0 mi ENE 8.1 mph - N/A   Overcast
11:53 AM 35.1 °F 28.6 °F 30.0 °F 82% 30.29 in 10.0 mi ENE 8.1 mph - N/A   Overcast
12:53 PM 36.0 °F 29.0 °F 30.0 °F 79% 30.26 in 10.0 mi East 9.2 mph - N/A   Mostly Cloudy
1:27 PM 35.6 °F 29.2 °F 30.2 °F 81% 30.22 in 10.0 mi East 8.1 mph - N/A   Mostly Cloudy
1:39 PM 35.6 °F 30.7 °F 30.2 °F 81% 30.22 in 10.0 mi East 5.8 mph - N/A   Partly Cloudy
1:53 PM 36.0 °F 31.1 °F 30.0 °F 79% 30.24 in 10.0 mi East 5.8 mph - N/A   Partly Cloudy
2:20 PM 37.4 °F 33.8 °F 30.2 °F 75% 30.20 in 10.0 mi ENE 4.6 mph - N/A   Overcast
2:53 PM 39.0 °F 34.0 °F 32.0 °F 76% 30.20 in 10.0 mi NE 6.9 mph - N/A   Mostly Cloudy
3:20 PM 37.4 °F 34.9 °F 32.0 °F 81% 30.19 in 10.0 mi Variable 3.5 mph - N/A   Overcast
3:41 PM 37.4 °F - 32.0 °F 81% 30.19 in 10.0 mi Calm Calm - N/A   Overcast
3:53 PM 39.0 °F - 32.0 °F 76% 30.21 in 9.0 mi Calm Calm - N/A   Overcast
4:53 PM 37.9 °F - 32.0 °F 79% 30.21 in 9.0 mi Calm Calm - N/A   Overcast
5:53 PM 37.9 °F - 32.0 °F 79% 30.20 in 9.0 mi Calm Calm - N/A   Overcast
6:49 PM 37.4 °F 34.9 °F 32.0 °F 81% 30.16 in 9.0 mi ENE 3.5 mph - N/A   Overcast
6:53 PM 37.0 °F 34.5 °F 32.0 °F 82% 30.19 in 10.0 mi ENE 3.5 mph - N/A   Overcast
7:53 PM 36.0 °F 32.1 °F 30.0 °F 79% 30.19 in 10.0 mi ESE 4.6 mph - N/A   Overcast
8:53 PM 36.0 °F 32.1 °F 30.0 °F 79% 30.19 in 10.0 mi East 4.6 mph - N/A   Overcast
9:53 PM 36.0 °F - 28.9 °F 76% 30.19 in 10.0 mi Calm Calm - N/A   Clear
10:53 PM 34.0 °F 31.0 °F 28.9 °F 82% 30.18 in 10.0 mi North 3.5 mph - N/A   Clear
11:53 PM 34.0 °F - 28.0 °F 79% 30.19 in 10.0 mi Calm Calm - N/A   Clear